STARLINK-4097 (53265 NORAD) Tracking and Keplerian Element Data

This shows tracking and keplerian element data for the satellite.

Feedback or suggestion? Click here.




ElementValue
Catalog53265
NameSTARLINK-4097
Epoch Orbit1075
Epoch Day270.25001157
Epoch Year2022
RAAN88.1593
Inclination53.2174
Eccentricity0.0001269
Argument of Perigee72.9276
Mean Anonmoly235.8933
Mean Motion15.21642026
Decay Rate-0.01070374
L11 53265U 22086Z 22270.25001157 -.01070374 00000+0 -51121-1 0 9997
L22 53265 53.2174 88.1593 0001269 72.9276 235.8933 15.21642026 10755

Live tracking and technical data element details for STARLINK-4097 (NORAD 53265). STARLINK-4097 can be tracked NOW for your location showing map with azimuth and elevation plus other details from your city location.

Track the satellite on the map from your city or location and see movement details for azimuth, elevation, latitude, longitude, range, height, and movement on the map or in text.







IsCatalogInMostPopularTable: catalog: 53265, numindb: 3
Update: records affected: 1



GetName: 53265 STARLINK-4097

Hit Count: updated at: Wed, 05 Oct 2022 08:51:35 GMT